Weather History for Broken Bow, NE

Change the Weather History Date:

Monday, July 29, 2013

  Actual Average Record
Temperature  
Mean Temperature 63 °F 74 °F  
Max Temperature 68 °F 86 °F 106 °F (1917)
Min Temperature 58 °F 62 °F 45 °F (1994)
Degree Days  
Heating Degree Days 2 0  
Month to date heating degree days 10 0  
Since 1 June heating degree days 51 46  
Cooling Degree Days 0 9  
Month to date cooling degree days 229 272  
Year to date cooling degree days 431 458  
Since 1 June cooling degree days 396 424  
Growing Degree Days 12 (Base 50)    
Moisture  
Dew Point 61 °F    
Average Humidity 94    
Maximum Humidity 100    
Minimum Humidity 87    
Precipitation  
Precipitation 0.15 in 0.11 in 1.68 in (1948)
Sea Level Pressure  
Sea Level Pressure 30.01 in    
Wind  
Wind Speed 6 mph (SE)    
Max Wind Speed 14 mph    
Max Gust Speed 20 mph    
Visibility 4 miles    
Events Rain    
T = Trace of Precipitation, MM = Missing Value Source: NWS Daily Summary

Daily Weather History Graph

Daily Weather History Graph

Search for Another Location

Airport:

Trip Planner

Search our weather history database for the weather conditions in past years. The results will help you decide how hot, cold, wet, or windy it might be!

Date:

Astronomy

Jul. 29, 2013 Rise Set
Actual Time 6:30 AM CDT 8:58 PM CDT
Civil Twilight 5:59 AM CDT 9:29 PM CDT
Nautical Twilight 5:20 AM CDT 10:08 PM CDT
Astronomical Twilight 4:36 AM CDT 10:52 PM CDT
Moon 12:16 AM CDT (7/29) 2:20 PM CDT (7/29)
Length of Visible Light 15h 30m
Length of Day
14h 27m
Waning Gibbous, 50% of the Moon is Illuminated
Jul 29
Waning Gibbous
Jul 29
Last Quarter
Aug 6
New
Aug 14
First Quarter
Aug 20
Full

Hourly Weather History & Observations

Time (CDT) Temp. Dew Point Humidity Pressure Visibility Wind Dir Wind Speed Gust Speed Precip Events Conditions
12:53 AM 59.0 °F 57.0 °F 93% 30.01 in 10.0 mi SSE 6.9 mph - N/A   Overcast
1:02 AM 59.0 °F 57.2 °F 94% 30.04 in 5.0 mi SSE 5.8 mph - N/A   Overcast
1:11 AM 57.2 °F 57.2 °F 100% 30.04 in 2.5 mi SE 6.9 mph - N/A   Overcast
1:19 AM 57.2 °F 57.2 °F 100% 30.04 in 2.5 mi SE 5.8 mph - N/A   Overcast
1:27 AM 57.2 °F 57.2 °F 100% 30.04 in 3.0 mi SE 6.9 mph - N/A   Overcast
1:53 AM 57.9 °F 57.9 °F 100% 30.00 in 3.0 mi SE 6.9 mph - N/A   Overcast
2:12 AM 57.2 °F 57.2 °F 100% 30.03 in 2.0 mi ESE 5.8 mph - N/A   Overcast
2:19 AM 57.2 °F 57.2 °F 100% 30.03 in 1.2 mi ESE 4.6 mph - N/A   Overcast
2:27 AM 57.2 °F 57.2 °F 100% 30.03 in 0.8 mi SE 6.9 mph - N/A   Overcast
2:53 AM 57.9 °F 57.9 °F 100% 29.98 in 0.8 mi ESE 8.1 mph - 0.00 in Rain Light Rain
2:58 AM 57.2 °F 57.2 °F 100% 30.02 in 1.2 mi ESE 6.9 mph - 0.00 in Rain Light Rain
3:05 AM 57.2 °F 57.2 °F 100% 30.02 in 3.0 mi ESE 6.9 mph - 0.00 in Rain Light Rain
3:53 AM 57.9 °F 57.9 °F 100% 29.98 in 6.0 mi SE 8.1 mph - 0.03 in   Overcast
4:53 AM 57.9 °F 57.9 °F 100% 29.97 in 5.0 mi SE 5.8 mph - 0.01 in Rain Light Rain
5:14 AM 59.0 °F 59.0 °F 100% 30.00 in 2.5 mi SSE 6.9 mph - 0.02 in Rain Light Rain
5:36 AM 59.0 °F 59.0 °F 100% 30.01 in 3.0 mi SE 9.2 mph - 0.05 in Rain Light Rain
5:45 AM 59.0 °F 59.0 °F 100% 30.00 in 2.5 mi SE 5.8 mph - 0.05 in Rain Light Rain
5:53 AM 59.0 °F 59.0 °F 100% 29.98 in 2.5 mi SE 6.9 mph - 0.05 in Rain Light Rain
6:53 AM 60.1 °F 60.1 °F 100% 29.98 in 2.5 mi SE 6.9 mph - 0.04 in Rain Light Rain
7:07 AM 60.8 °F 60.8 °F 100% 30.01 in 1.2 mi ESE 5.8 mph - 0.01 in Rain Light Rain
7:53 AM 60.1 °F 60.1 °F 100% 29.97 in 1.2 mi SE 8.1 mph - 0.01 in   Overcast
8:46 AM 60.8 °F 60.8 °F 100% 30.00 in 3.0 mi SSE 11.5 mph - 0.01 in   Overcast
8:53 AM 61.0 °F 61.0 °F 100% 29.97 in 4.0 mi SSE 12.7 mph 19.6 mph 0.01 in   Overcast
9:01 AM 60.8 °F 60.8 °F 100% 30.00 in 4.0 mi SSE 11.5 mph - N/A   Overcast
9:20 AM 60.8 °F 60.8 °F 100% 29.99 in 2.0 mi SSE 11.5 mph - N/A   Overcast
9:28 AM 60.8 °F 60.8 °F 100% 29.99 in 2.0 mi SSE 9.2 mph - N/A   Overcast
9:45 AM 60.8 °F 60.8 °F 100% 29.99 in 3.0 mi SSE 6.9 mph - N/A   Overcast
9:53 AM 61.0 °F 61.0 °F 100% 29.96 in 2.5 mi SSE 9.2 mph - N/A   Overcast
10:29 AM 62.6 °F 62.6 °F 100% 29.99 in 5.0 mi SSE 10.4 mph - N/A   Overcast
10:53 AM 62.1 °F 62.1 °F 100% 29.97 in 6.0 mi SSE 9.2 mph - N/A   Overcast
11:23 AM 62.6 °F 62.6 °F 100% 30.01 in 10.0 mi South 9.2 mph - N/A   Overcast
11:33 AM 62.6 °F 62.6 °F 100% 30.01 in 8.0 mi SSE 6.9 mph - N/A   Unknown
11:53 AM 62.1 °F 62.1 °F 100% 29.99 in 3.0 mi SSE 6.9 mph - N/A   Mist
12:03 PM 62.6 °F 62.6 °F 100% 30.01 in 5.0 mi South 5.8 mph - N/A   Overcast
12:53 PM 63.0 °F 62.1 °F 97% 29.99 in 3.0 mi South 4.6 mph - N/A   Overcast
1:01 PM 64.4 °F 62.6 °F 94% 30.01 in 4.0 mi Variable 3.5 mph - N/A   Overcast
1:53 PM 64.0 °F 63.0 °F 96% 29.99 in 3.0 mi ESE 3.5 mph - N/A   Overcast
2:53 PM 66.9 °F 64.0 °F 90% 29.98 in 9.0 mi Calm Calm - N/A   Overcast
3:12 PM 68.0 °F 64.4 °F 88% 30.01 in 10.0 mi Calm Calm - N/A   Overcast
3:53 PM 66.9 °F 63.0 °F 87% 29.98 in 10.0 mi SE 3.5 mph - N/A   Overcast
4:53 PM 68.0 °F 64.0 °F 87% 29.98 in 9.0 mi SE 6.9 mph - N/A   Overcast
5:53 PM 66.9 °F 63.0 °F 87% 29.97 in 9.0 mi ESE 8.1 mph - N/A   Overcast
6:53 PM 66.0 °F 64.0 °F 93% 29.97 in 7.0 mi SE 8.1 mph - N/A   Overcast
7:03 PM 66.2 °F 64.4 °F 94% 30.00 in 7.0 mi ESE 8.1 mph - N/A   Overcast
7:22 PM 64.4 °F 62.6 °F 94% 30.00 in 6.0 mi SE 8.1 mph - N/A   Overcast
7:36 PM 64.4 °F 64.4 °F 100% 30.00 in 5.0 mi SE 8.1 mph - N/A   Overcast
7:53 PM 64.9 °F 63.0 °F 93% 29.98 in 6.0 mi SE 5.8 mph - N/A   Overcast
8:15 PM 64.4 °F 62.6 °F 94% 30.03 in 6.0 mi SE 4.6 mph - N/A   Overcast
8:53 PM 64.0 °F 63.0 °F 96% 30.01 in 5.0 mi SE 5.8 mph - N/A   Overcast
9:03 PM 64.4 °F 62.6 °F 94% 30.05 in 4.0 mi SE 6.9 mph - N/A   Overcast
9:28 PM 62.6 °F 62.6 °F 100% 30.06 in 5.0 mi Calm Calm - N/A   Overcast
9:36 PM 62.6 °F 62.6 °F 100% 30.07 in 5.0 mi SSE 4.6 mph - N/A   Overcast
9:50 PM 62.6 °F 62.6 °F 100% 30.07 in 5.0 mi SE 4.6 mph - N/A   Overcast
9:53 PM 63.0 °F 63.0 °F 100% 30.04 in 5.0 mi SSE 3.5 mph - N/A   Overcast
10:18 PM 62.6 °F 62.6 °F 100% 30.07 in 4.0 mi SE 5.8 mph - N/A   Overcast
10:53 PM 63.0 °F 63.0 °F 100% 30.05 in 4.0 mi Calm Calm - N/A   Overcast
11:53 PM 64.0 °F 63.0 °F 96% 30.03 in 5.0 mi SE 5.8 mph - N/A   Overcast